Flag for Switzerland Weather past 2 weeks in Illnau-Effretikon, Zurich, Switzerland

Now
50 °F

Cool.


Feels Like: 48 °F
Forecast: 40 / 64 °F
Wind: 6 mph from South

Location: Zurich Town / Ville.

Current Time: May 26, 2015 at 12:08:03 PM

Latest Report: May 26, 2015 at 11:00 AM


Visibility: N/A

Pressure: 30.06 "Hg

Humidity: 97%

Dew point: 50 °F

Location of Illnau-EffretikonLocation

Historic Weather in Illnau-Effretikon — Graph

°F

Illnau-Effretikon temperature yesterday

Maximum temperature yesterday: 65 °F (at 2:00 PM)
Minimum temperature yesterday: 53 °F (at 10:00 PM)
Average temperature yesterday: 56 °F

Past Weeks' High & Low Weather Summary

 TemperatureHumidityPressure
High81 °F (May 12, 3:00 PM)97% (May 15, 5:00 PM)30.34 "Hg (May 15, 5:00 PM)
Low41 °F (May 21, 1:00 AM)29% (May 12, 3:00 PM)29.71 "Hg (May 18, 7:00 PM)
Average56 °F72%30.06 "Hg
* Reported May 11 10:00 AM — May 26 10:00 AM, Illnau-Effretikon, Weather by CustomWeather, © 2015

Note: Actual official high and low records may vary slightly from our data, if they occured in-between our weather recording intervals... More about our weather records

Advertising

Illnau-Effretikon weather history for previous 24 hours

 ConditionsComfort  
Time TempWeatherWind HumidityBarometerVisibility
10:00 AM
Tue, May 26
51 °FCool.5 mph94%30.04 "HgN/A
9:00 AM52 °FCool.2 mph92%30.02 "HgN/A
8:00 AM51 °FCool.1 mph95%30.01 "HgN/A
7:00 AM51 °FCool.3 mph95%29.99 "HgN/A
6:00 AM51 °FCool.5 mph95%29.98 "HgN/A
5:00 AM51 °FCool.3 mph95%29.97 "HgN/A
4:00 AM52 °FCool.3 mph96%29.97 "HgN/A
3:00 AM51 °FCool.1 mph95%29.97 "HgN/A
2:00 AM51 °FCool.1 mph96%29.98 "HgN/A
1:00 AM51 °FCool.3 mph96%29.99 "HgN/A
12:00 AM51 °FCool.5 mph96%29.99 "HgN/A
10:00 PM
Mon, May 25
53 °FCool.9 mph94%29.98 "HgN/A
9:00 PM53 °FCool.2 mph96%29.96 "HgN/A
8:00 PM54 °FCool.3 mph95%29.95 "HgN/A
7:00 PM56 °FCool.2 mph91%29.93 "HgN/A
6:00 PM56 °FCool.3 mph87%29.93 "HgN/A
5:00 PM56 °FCool.3 mph86%29.95 "HgN/A
4:00 PM54 °FCool.5 mph88%29.96 "HgN/A
3:00 PM54 °FCool.10 mph85%29.97 "HgN/A
2:00 PM65 °FOvercast.5 mph53%29.91 "HgN/A
1:00 PM64 °FMild.5 mph58%29.94 "HgN/A
12:00 PM61 °FCool.3 mph66%29.97 "HgN/A
Weather by CustomWeather, © 2015

See weather overviewHow to use our weather pages